SCP
1 1 1 0 0 0 0 0 1 1 1 1 1 1 1 1 0 0 0 0 0 0 0 0 0 0 0 0 0 0 0 0 0 0 0 0 0 0 0 0 0 0 0
1 1 1 0 0 0 0 0 1 1 1 1 1 1 1 1 0 0 0 0 0 0 0 0 0 0 0 0 0 0 0 0 0 0 0 0 0 0 0 0 0 0 0
1 1 1 0 0 0 0 0 0 1 1 1 1 1 1 1 1 0 0 0 0 0 0 0 0 0 0 0 0 0 0 0 0 0 0 0 0 0 0 0 0 0 0
1 1 1 1 0 0 0 0 0 1 1 1 1 1 1 1 1 0 0 0 0 0 0 0 0 0 0 0 0 0 0 0 0 0 0 0 0 0 0 0 0 0 0
1 1 1 1 0 0 0 0 1 1 1 1 1 1 1 1 1 0 0 0 0 0 0 0 0 0 0 0 0 0 0 0 0 0 0 0 0 0 0 0 0 0 0
1 1 1 1 0 0 0 0 0 1 1 1 1 1 1 1 1 0 0 0 0 0 0 0 0 0 0 0 0 0 0 0 0 0 0 0 0 0 0 0 0 0 0
1 1 1 1 1 0 0 0 1 1 1 1 1 1 1 1 1 1 1 1 1 0 0 0 0 0 0 0 0 0 0 0 0 0 0 0 0 0 0 0 0 0 0
0 1 1 1 1 1 1 1 1 1 1 1 1 1 1 1 1 1 1 1 1 1 1 1 0 0 0 0 0 0 0 0 0 0 0 0 0 0 0 0 0 0 0
0 0 1 1 1 1 1 1 1 1 1 1 1 1 1 1 1 1 1 1 1 1 1 1 1 1 1 1 1 0 0 0 0 0 0 0 1 0 0 0 0 0 0
0 0 0 1 1 1 1 1 1 1 1 1 1 2 2 1 1 1 1 1 1 1 1 1 1 1 1 1 1 1 1 0 0 0 0 1 1 1 0 0 0 0 1
1 1 1 1 1 1 1 1 1 2 2 2 2 2 2 2 2 1 2 2 2 1 1 1 1 1 1 1 1 1 1 1 0 0 1 1 1 1 1 1 1 1 1
2 2 2 2 2 2 2 2 2 2 3 3 3 3 3 3 2 2 2 2 2 2 1 1 1 1 1 1 1 1 1 1 1 1 1 2 2 1 1 1 1 1 1
4 4 4 4 4 3 3 3 3 3 3 3 3 3 3 3 3 3 3 3 3 2 2 2 2 2 1 1 1 1 1 1 1 1 1 2 2 1 1 1 1 1 1
5 5 4 5 5 4 3 3 3 3 3 3 4 3 3 4 4 3 3 3 3 3 3 3 2 2 2 2 1 1 1 1 1 1 2 2 2 1 1 1 1 1 1
5 5 4 5 5 4 4 4 3 3 3 3 3 3 4 4 4 4 4 4 4 4 3 3 3 2 2 2 2 1 1 1 1 1 2 2 2 1 1 1 1 1 1
4 4 4 4 4 4 5 4 4 4 4 3 3 4 5 5 5 4 4 4 4 4 4 3 3 3 2 2 2 1 1 1 1 1 2 2 2 1 1 1 1 1 1
4 4 4 4 4 5 5 4 4 4 4 4 4 4 5 5 5 5 5 4 3 4 4 4 4 3 3 2 2 2 2 1 2 2 1 2 2 1 1 1 1 1 1
4 4 4 4 5 5 5 4 3 3 3 3 3 4 5 5 5 6 5 4 4 4 5 5 4 4 3 3 2 2 2 2 2 1 1 1 1 1 1 1 1 1 1
4 4 4 4 5 5 4 4 3 3 3 3 3 4 3 4 5 6 7 6 5 5 5 5 4 4 3 3 2 2 1 1 1 1 1 1 1 1 1 1 1 1 1
4 4 5 5 6 5 4 4 3 3 4 4 4 3 3 3 4 6 8 7 5 5 6 5 4 3 3 2 2 1 1 1 1 1 1 1 1 1 1 1 1 1 1
3 3 4 5 6 6 5 5 4 4 4 3 3 3 2 2 3 5 5 5 5 5 5 5 4 3 3 2 2 1 1 1 1 1 1 1 1 1 1 1 1 1 1
2 2 2 3 3 4 4 5 4 4 3 2 2 2 2 2 2 3 3 3 4 5 5 5 5 4 3 2 1 1 1 0 0 0 0 0 0 0 0 1 1 1 1
1 1 1 1 1 2 2 2 2 2 2 2 2 2 1 1 1 2 2 2 3 4 4 4 4 4 3 2 1 1 0 0 0 0 0 0 0 0 0 0 0 1 1
1 1 1 1 1 1 1 1 1 1 1 1 1 1 1 1 1 1 1 1 2 3 3 3 3 2 2 2 1 1 0 0 0 0 0 0 0 0 0 0 0 0 1
0 0 1 1 1 1 1 1 1 1 1 1 1 1 1 1 1 1 1 1 1 2 3 2 2 2 2 1 1 1 1 0 0 0 0 0 0 0 0 0 0 0 1
0 0 0 1 1 1 1 1 1 1 1 1 1 1 0 0 0 0 1 1 1 1 2 2 2 2 2 1 1 1 1 1 0 0 0 0 0 0 0 0 0 0 1
Wind_Speed
14 19 21 17 15 14 13 12 13 14 15 15 15 14 14 14 13 13 12 11 10 9 8 8 8 8 8 9 9 9 9 9 9 9 10 10 10 10 10 9 8 11 12
17 20 21 18 16 14 13 12 12 13 14 14 14 14 14 13 13 12 11 10 10 9 8 8 8 8 8 8 9 9 9 8 9 9 10 10 9 9 9 5 3 11 11
19 20 20 17 16 15 14 13 12 13 13 14 13 13 13 13 12 12 11 10 9 8 8 7 7 7 7 8 8 8 8 7 7 8 8 8 10 8 8 7 9 11 10
19 19 18 19 16 15 14 13 12 12 13 13 13 13 12 12 11 11 10 10 9 8 8 7 7 7 7 7 7 7 7 7 6 7 7 6 9 10 7 8 9 9 9
17 17 18 19 17 15 14 13 13 12 12 12 12 12 11 11 11 11 10 9 9 8 8 7 7 7 7 7 7 7 7 7 6 9 5 5 6 11 8 8 8 9 9
17 16 19 18 17 15 14 13 13 12 12 11 11 11 11 11 10 10 10 9 9 8 8 7 7 7 7 7 7 7 7 7 9 7 5 5 7 10 8 8 8 8 9
17 15 18 17 16 15 14 13 13 12 12 11 11 10 10 10 10 10 10 9 8 8 8 8 7 7 8 8 8 8 8 8 10 5 5 5 6 10 8 9 9 9 9
16 15 17 16 16 15 14 13 13 12 12 11 11 10 10 10 9 9 9 9 9 9 8 8 8 8 8 8 8 8 9 10 11 8 7 6 8 8 8 9 10 11 10
14 13 14 15 14 14 13 12 12 12 11 11 10 10 10 9 9 9 9 9 10 9 9 9 9 9 10 10 10 10 10 11 13 8 8 6 11 10 10 11 12 13 13
12 12 12 12 12 12 12 13 11 11 11 11 11 11 11 11 11 11 11 11 11 11 11 11 11 11 11 11 12 11 11 11 14 12 8 7 12 11 11 12 13 14 15
11 10 11 11 10 10 10 12 13 12 12 12 12 13 12 12 13 12 15 12 13 13 12 13 13 13 12 14 14 13 12 10 13 10 8 8 12 12 13 12 13 14 15
13 12 10 10 10 9 7 8 8 9 10 11 10 12 11 10 9 10 8 11 13 14 14 15 14 13 14 11 14 16 10 13 12 9 7 11 11 13 14 13 13 14 15
13 12 11 10 9 9 6 6 5 5 6 9 11 10 9 9 8 9 7 9 12 14 13 13 14 12 12 9 7 9 11 10 8 7 7 14 13 14 15 15 14 14 15
12 12 11 10 8 8 6 5 5 5 4 6 7 10 9 7 8 8 7 8 8 7 9 9 8 11 11 11 11 11 11 9 8 7 5 13 13 15 15 16 16 15 15
10 10 9 8 7 6 6 5 5 5 6 7 7 8 10 9 9 9 7 7 9 8 9 9 10 10 10 11 11 12 12 12 11 9 6 11 13 14 15 16 16 16 16
6 6 5 6 5 4 4 4 4 6 6 8 8 9 11 10 10 9 9 9 9 9 9 8 10 9 9 8 11 12 12 12 10 11 10 10 15 15 15 15 16 16 17
2 2 2 3 2 3 4 6 6 6 8 8 8 9 11 12 11 10 9 9 9 9 9 8 10 9 9 9 11 11 10 11 10 10 11 8 9 15 16 15 15 15 16
4 3 1 1 2 3 4 5 6 7 8 8 8 8 11 12 11 10 9 8 8 7 7 8 8 8 8 8 8 8 8 8 10 10 10 10 9 8 13 17 15 14 16
5 3 2 2 3 4 5 5 7 6 7 7 7 7 8 10 11 9 7 6 7 7 7 8 7 7 8 8 7 8 8 8 8 10 10 11 10 9 9 11 15 14 16
4 3 2 2 3 4 4 4 5 6 5 5 5 6 8 7 8 7 6 7 7 6 6 7 7 7 7 6 8 7 7 7 8 8 9 10 9 11 11 10 9 12 17
4 3 2 3 3 3 3 5 5 5 5 4 4 5 6 6 6 5 5 5 5 6 7 8 7 9 8 6 6 7 8 9 9 7 8 8 9 9 9 8 8 8 8
4 3 2 2 3 4 4 4 4 5 5 4 4 4 5 5 5 4 4 4 4 5 7 8 8 7 6 6 6 6 7 7 7 8 6 7 7 6 8 9 8 7 8
4 3 3 3 4 4 6 5 4 4 4 4 4 4 5 5 5 4 5 5 5 5 5 6 7 8 6 6 6 6 6 5 4 6 6 6 5 5 6 5 7 7 8
2 2 2 3 4 5 6 6 7 7 7 7 5 4 5 4 5 4 5 5 5 5 5 6 6 6 7 7 6 7 7 5 4 4 7 7 7 6 6 5 5 5 6
3 4 4 5 6 6 6 7 8 8 7 6 6 5 5 4 3 4 4 4 4 5 5 6 5 7 7 8 7 7 7 6 8 6 4 5 6 6 5 5 4 4 3
6 6 7 7 8 8 8 8 9 10 10 10 9 8 6 4 3 3 3 3 4 4 5 5 6 8 8 9 8 7 7 7 8 7 6 6 5 4 4 3 4 3 2
Wind_Direction
157 146 149 157 159 159 157 155 156 158 161 162 160 158 156 154 153 152 152 150 147 143 136 127 122 121 121 119 119 118 119 120 121 120 118 114 113 116 119 129 150 114 110
149 145 149 156 159 159 157 155 153 155 159 161 160 158 156 155 155 155 155 154 154 151 143 133 127 124 122 122 123 124 126 130 132 131 133 129 121 120 124 129 50 104 123
147 144 152 156 159 160 159 156 154 155 158 160 160 159 158 157 156 157 158 159 159 156 149 141 135 130 128 127 129 132 135 139 143 147 175 156 129 128 127 119 104 120 128
148 148 155 154 159 160 160 159 158 158 159 160 162 162 161 160 159 160 161 163 163 160 154 151 146 141 138 138 139 141 144 148 151 181 193 139 138 131 140 135 133 137 137
148 149 147 156 160 162 162 162 162 163 163 164 165 166 166 165 166 167 167 168 167 163 161 161 158 154 151 151 152 154 157 159 168 223 141 142 127 133 153 153 151 152 151
150 154 148 160 161 163 165 166 167 166 167 169 170 171 172 173 175 175 175 174 171 171 171 173 172 168 167 168 168 170 172 176 205 198 155 178 140 144 165 168 170 167 165
155 155 150 162 163 165 167 169 171 171 173 175 176 178 180 181 183 185 184 183 183 184 185 185 186 183 183 185 186 187 191 200 236 197 187 197 134 143 178 182 185 184 181
157 156 148 161 165 167 170 172 175 177 179 181 183 186 189 190 193 196 196 196 196 197 200 200 200 198 198 200 202 203 207 225 230 220 214 209 136 161 196 201 197 196 195
159 155 155 165 169 171 174 177 180 183 185 188 192 194 198 201 205 209 210 211 211 211 211 213 213 212 211 211 212 213 217 229 257 234 220 215 151 182 210 216 209 204 202
161 161 161 168 170 177 178 180 186 190 193 197 201 204 206 211 215 218 221 214 222 223 221 221 222 222 221 220 219 219 222 227 241 242 224 191 154 192 215 221 217 209 206
165 166 169 169 173 183 186 175 188 195 200 205 207 208 214 219 216 208 221 211 219 228 230 229 228 228 228 224 224 223 222 234 232 241 232 156 164 200 221 228 223 214 209
171 174 174 177 175 188 193 182 202 205 199 214 218 210 215 223 230 232 199 209 225 233 235 235 237 235 233 230 213 212 226 228 243 233 216 155 180 210 224 230 230 221 214
174 180 179 182 182 194 198 204 212 221 215 221 227 227 232 235 228 229 224 207 219 227 233 225 226 231 231 232 233 215 228 236 232 239 212 166 192 215 225 229 230 226 219
178 183 187 183 191 204 216 222 229 234 233 241 232 235 234 233 238 235 231 234 225 223 228 238 233 232 238 239 235 238 234 235 239 239 216 172 197 216 226 229 227 226 222
181 186 188 188 194 207 219 241 246 254 259 254 255 245 248 246 240 239 236 238 242 238 229 231 241 242 241 241 240 237 242 239 241 242 228 189 205 219 227 229 228 227 224
179 184 188 197 204 223 242 251 258 265 261 267 262 257 253 254 250 246 242 239 241 242 242 241 242 242 242 243 246 243 241 242 237 239 244 212 202 213 223 228 229 228 226
131 159 192 206 229 265 282 285 279 276 274 272 269 262 256 254 253 250 247 243 244 243 241 242 246 245 241 240 243 246 244 243 240 237 243 247 226 207 212 220 225 228 228
60 58 14 316 297 290 292 289 284 285 284 277 273 268 261 260 258 255 252 250 248 243 237 237 239 239 238 239 242 243 240 238 239 239 240 236 243 242 210 207 215 223 228
51 36 18 345 316 299 289 278 277 277 278 282 282 279 277 272 264 257 254 259 256 244 237 242 234 235 237 234 239 233 239 239 241 240 241 244 240 240 248 198 201 216 226
57 42 27 5 341 310 297 283 281 283 289 288 290 291 290 285 278 268 260 256 251 242 235 234 239 234 247 242 247 245 238 238 236 238 242 241 243 242 242 243 218 212 215
67 59 32 4 347 321 320 314 314 311 308 303 298 306 302 298 294 284 276 264 252 244 238 234 231 227 231 232 239 240 233 231 237 242 242 248 238 237 245 245 248 249 213
65 47 31 2 356 332 342 318 312 315 312 316 310 310 314 313 313 299 291 282 264 253 240 235 229 237 230 213 233 246 238 216 211 227 223 224 236 228 230 230 237 243 258
63 38 19 360 342 344 333 320 321 306 298 314 319 318 331 332 332 321 298 280 263 255 244 235 225 229 235 221 226 246 251 243 192 185 211 218 219 231 238 236 234 238 240
40 15 354 337 336 334 323 332 331 327 330 333 322 325 323 330 332 329 311 291 268 254 252 244 236 235 238 234 214 235 262 310 277 201 191 195 208 224 245 255 249 237 238
332 332 331 330 325 324 320 313 306 312 319 318 316 309 302 303 306 317 318 309 295 275 262 250 248 240 235 241 233 215 218 222 241 266 225 192 200 213 217 231 246 254 247
317 320 322 323 318 315 309 307 300 302 302 303 300 299 289 290 287 288 291 296 292 290 279 267 251 240 243 245 249 239 221 216 218 224 233 225 221 212 215 232 234 224 225